Terminal Aerodrome Forecast
Issued by NWS Mt. Holly, NJ

Home | Current Version | Previous Version | Text Only | Print | Product List | Glossary On
Versions: 1 2 3 4 5 6 7 8 9 10 11 12 13 14 15 16 17 18 19 20 21 22
000
FTAK31 PANC 260707 AAA
TAFABE
TAF AMD
PABE 260707Z 2607/2706 29010KT 1SM BR VV012
      TEMPO 2607/2611 1/4SM FZFG
     FM261500 16015KT P6SM FEW010 BKN030
     FM262000 16018G28KT P6SM BKN015 OVC025=

USA.gov is the U.S. government's official web portal to all federal, state and local government web resources and services.